(295678) = 2008 TV94

Discovered at La Sagra on 2008-10-05 by OAM.

Orbit

Orbit type: Main Belt

Note: WebGL enabled browser required.

epoch2024-03-31.0
epoch JD2460400.5
perihelion date2021-06-01.16864
perihelion JD2459366.66864
argument of perihelion (°)336.07142
ascending node (°)339.05908
inclination (°)6.76423
eccentricity0.2295151
perihelion distance (AU)1.7046276
Tisserand w.r.t. Jupiter3.6
ΔV w.r.t. Earth (km/sec)8.3
semimajor axis (AU)2.2124088
mean anomaly (°)309.63888
mean daily motion (°/day)0.29950620
aphelion distance (AU)2.720
period (years)3.29
P-vector [x]0.70972452
P-vector [y]-0.62585630
P-vector [z]-0.32341150
Q-vector [x]0.70322043
Q-vector [y]0.60195686
Q-vector [z]0.37832389
absolute magnitude17.2
phase slope0.15
uncertainty0
referenceMPEC 2024-E179
observations used422
oppositions13
arc length (days)7883
first opposition used2001
last opposition used2023
residual rms (arc-secs)0.74
perturbers coarse indicatorM-v
perturbers precise indicator003Ek
first observation date used2001-07-29.0
last observation date used2023-02-27.0
computer nameMPCLINUX
JD of orbit computation2456847.796632
perihelion JD uncertainty (days)3.5992E-05
argument of perihelion uncertainty (°)4.4168E-05
ascending node uncertainty (°)4.2641E-05
inclination uncertainty (°)5.1932E-06
eccentricity uncertainty 4.8318E-08
perihelion distance uncertainty (AU)1.1310E-07
Minimum Orbit Intersection Distances (in AU)
for orbit epoch: 2460400.5, reference: E2024-FB1
Mercury1.27527
Venus0.97643
Earth0.69368
Mars0.31463
Jupiter2.57558
Saturn6.4185
Uranus15.766
Neptune27.484

Observations

432 total observations over interval: 2001 07 29.20477 – 2023 02 27.621598
These data are available for download (format description).

Date (UT) J2000 RA J2000 Dec Magn Location Ref
2001 07 29.20477 19 16 19.06 -32 54 39.2 20.0   644 – Palomar Mountain/NEAT MPS 270347
2001 07 29.21547 19 16 18.52 -32 54 35.5 19.5   644 – Palomar Mountain/NEAT MPS 270347
2001 07 29.22602 19 16 17.98 -32 54 31.1 18.8   644 – Palomar Mountain/NEAT MPS 270347
2004 04 14.70822 14 24 17.92 -24 54 08.9 18.7 R E12 – Siding Spring Survey MPS 270347
2004 04 14.71964 14 24 17.25 -24 54 08.7 17.9 R E12 – Siding Spring Survey MPS 270347
2004 04 14.73105 14 24 16.39 -24 54 08.4 18.8 R E12 – Siding Spring Survey MPS 270347
2004 04 14.74251 14 24 15.77 -24 54 08.3 19.1 R E12 – Siding Spring Survey MPS 270347
2007 02 27.45103 12 16 28.00 -05 01 30.7   691 – Steward Observatory, Kitt Peak-Spacewatch MPS 270347
2007 02 27.47219 12 16 26.91 -05 01 28.9   691 – Steward Observatory, Kitt Peak-Spacewatch MPS 270347
2007 02 27.49336 12 16 25.93 -05 01 26.6   691 – Steward Observatory, Kitt Peak-Spacewatch MPS 270347
2007 03 12.25641 12 04 40.41 -04 28 08.2 21.0 V 691 – Steward Observatory, Kitt Peak-Spacewatch MPS 270347
2007 03 12.27408 12 04 39.26 -04 28 05.0 20.9 V 691 – Steward Observatory, Kitt Peak-Spacewatch MPS 270347
2007 03 12.29175 12 04 38.14 -04 28 01.3 20.7 V 691 – Steward Observatory, Kitt Peak-Spacewatch MPS 270347
2008 10 05.14685 03 21 02.58 +28 28 25.5 20.0 V J75 – OAM Observatory, La Sagra MPS 260375
2008 10 05.15966 03 21 02.12 +28 28 28.2 19.5 V J75 – OAM Observatory, La Sagra MPS 260375
2008 10 05.17264 03 21 01.65 +28 28 31.0 20.1 V J75 – OAM Observatory, La Sagra MPS 260375
2008 10 06.45026 03 20 17.48 +28 33 11.0 20.1 V 703 – Catalina Sky Survey MPS 260375
2008 10 06.45758 03 20 17.12 +28 33 11.5 19.6 V 703 – Catalina Sky Survey MPS 260375
2008 10 06.46501 03 20 16.98 +28 33 14.2 21.0 V 703 – Catalina Sky Survey MPS 260375
2008 10 06.47224 03 20 16.65 +28 33 13.7 20.0 V 703 – Catalina Sky Survey MPS 260375
2008 10 25.35302 03 02 36.34 +28 57 03.6 19.0 V 703 – Catalina Sky Survey MPS 267637
2008 10 25.35858 03 02 36.06 +28 57 03.0 19.3 V 703 – Catalina Sky Survey MPS 267637
2008 10 25.36417 03 02 35.62 +28 57 03.3 19.2 V 703 – Catalina Sky Survey MPS 267637
2008 10 25.36968 03 02 35.16 +28 57 03.0 19.5 V 703 – Catalina Sky Survey MPS 267637
2008 10 31.31068 02 55 13.94 +28 45 36.5 19.5 V 703 – Catalina Sky Survey MPS 264672
2008 10 31.31674 02 55 13.29 +28 45 36.8 19.7 V 703 – Catalina Sky Survey MPS 264672
2008 10 31.32276 02 55 13.00 +28 45 34.5 19.0 V 703 – Catalina Sky Survey MPS 264672
2008 10 31.32888 02 55 12.46 +28 45 32.7 19.7 V 703 – Catalina Sky Survey MPS 264672
2008 11 03.24662 02 51 29.84 +28 36 42.6 19.3 V G96 – Mt. Lemmon Survey MPS 264672
2008 11 03.25645 02 51 29.05 +28 36 40.7 19.4 V G96 – Mt. Lemmon Survey MPS 264672
2008 11 03.26624 02 51 28.29 +28 36 38.8 19.3 V G96 – Mt. Lemmon Survey MPS 264672
2008 11 03.27605 02 51 27.50 +28 36 36.9 19.3 V G96 – Mt. Lemmon Survey MPS 264672
2008 11 04.26177 02 50 11.98 +28 33 11.4   704 – Lincoln Laboratory ETS, New Mexico MPS 407583
2008 11 04.27368 02 50 11.14 +28 33 08.4   704 – Lincoln Laboratory ETS, New Mexico MPS 407583
2008 11 04.29737 02 50 09.25 +28 33 03.5   704 – Lincoln Laboratory ETS, New Mexico MPS 407583
2008 11 17.28022 02 34 32.26 +27 31 06.3 19.4 V 703 – Catalina Sky Survey MPS 265327
2008 11 17.28681 02 34 31.80 +27 31 04.4 20.1 V 703 – Catalina Sky Survey MPS 265327
2008 11 17.29344 02 34 31.29 +27 31 01.7 19.3 V 703 – Catalina Sky Survey MPS 265327
2008 11 17.30015 02 34 30.79 +27 30 59.0 19.2 V 703 – Catalina Sky Survey MPS 265327
2008 11 22.26147 02 29 28.33 +27 01 58.3 19.9   704 – Lincoln Laboratory ETS, New Mexico MPS 266496
2008 11 22.27398 02 29 27.48 +27 01 53.5 20.2   704 – Lincoln Laboratory ETS, New Mexico MPS 266496
2008 11 22.28653 02 29 26.87 +27 01 49.7 20.0   704 – Lincoln Laboratory ETS, New Mexico MPS 266496
2008 11 22.31145 02 29 25.37 +27 01 39.5 20.1   704 – Lincoln Laboratory ETS, New Mexico MPS 266496
2008 11 30.23102 02 22 59.91 +26 14 09.3 19.6 V 703 – Catalina Sky Survey MPS 267637
2008 11 30.23917 02 22 59.59 +26 14 05.2 19.8 V 703 – Catalina Sky Survey MPS 267637
2008 11 30.24730 02 22 59.16 +26 14 02.3 19.8 V 703 – Catalina Sky Survey MPS 267637
2008 11 30.25535 02 22 58.83 +26 13 58.4 19.8 V 703 – Catalina Sky Survey MPS 267637
2010 02 09.21383 10 31 51.87 +11 03 57.1 20.8 V 691 – Steward Observatory, Kitt Peak-Spacewatch MPS 313489
2010 02 09.23151 10 31 50.83 +11 04 01.1 20.7 V 691 – Steward Observatory, Kitt Peak-Spacewatch MPS 313489
2010 02 09.24922 10 31 49.66 +11 04 05.7 21.2 V 691 – Steward Observatory, Kitt Peak-Spacewatch MPS 313489
2010 02 16.32639 10 24 26.02 +11 31 46.8 20.6 V G96 – Mt. Lemmon Survey MPS 313489
2010 02 16.33299 10 24 25.59 +11 31 48.2 20.9 V G96 – Mt. Lemmon Survey MPS 313489
2010 02 16.33964 10 24 25.16 +11 31 50.0 20.5 V G96 – Mt. Lemmon Survey MPS 313489
2010 02 23.378016 10 16 40.477 +11 59 39.67 20.25 i F51 – Pan-STARRS 1, Haleakala MPS 319401
2010 02 23.387793 10 16 39.803 +11 59 42.11 20.53 i F51 – Pan-STARRS 1, Haleakala MPS 319401
2010 03 17.24498 09 54 34.63 +13 07 06.6 21.7 V G96 – Mt. Lemmon Survey MPS 318012
2010 03 17.25035 09 54 34.41 +13 07 08.0 21.1 V G96 – Mt. Lemmon Survey MPS 318012
2010 03 17.25571 09 54 34.16 +13 07 08.5 21.4 V G96 – Mt. Lemmon Survey MPS 318012
2010 03 17.26109 09 54 33.91 +13 07 09.2 21.2 V G96 – Mt. Lemmon Survey MPS 318012
2011 06 29.59906 22 42 23.047 -15 32 04.52 19.4 z F51 – Pan-STARRS 1, Haleakala MPS 385807
2011 06 29.61061 22 42 23.610 -15 31 59.38 19.6 z F51 – Pan-STARRS 1, Haleakala MPS 385807
2011 08 29.62293 22 26 42.10 -10 58 07.8 17.8 V E12 – Siding Spring Survey MPS 389187
2011 08 29.63431 22 26 41.35 -10 58 05.3 17.8 V E12 – Siding Spring Survey MPS 389187
2011 08 29.64573 22 26 40.59 -10 58 03.7 17.9 V E12 – Siding Spring Survey MPS 389187
2011 08 31.28296 22 25 01.49 -10 53 17.4 17.9   704 – Lincoln Laboratory ETS, New Mexico MPS 389187
2011 08 31.29675 22 25 00.60 -10 53 15.1 18.2   704 – Lincoln Laboratory ETS, New Mexico MPS 389187
2011 08 31.31051 22 24 59.68 -10 53 12.6 18.2   704 – Lincoln Laboratory ETS, New Mexico MPS 389187
2011 08 31.32426 22 24 58.80 -10 53 10.4 18.3   704 – Lincoln Laboratory ETS, New Mexico MPS 389187
2011 09 16.48700 22 11 13.16 -09 55 58.5 18.4 V E12 – Siding Spring Survey MPS 392550
2011 09 16.49839 22 11 12.66 -09 55 55.8 18.2 V E12 – Siding Spring Survey MPS 392550
2011 09 16.50971 22 11 12.19 -09 55 53.2 18.3 V E12 – Siding Spring Survey MPS 392550
2011 09 16.52102 22 11 11.68 -09 55 50.7 18.6 V E12 – Siding Spring Survey MPS 392550
2011 09 20.26350 22 09 03.96 -09 40 21.9 18.8 V 703 – Catalina Sky Survey MPS 392550
2011 09 20.27095 22 09 03.67 -09 40 19.4 19.2 V 703 – Catalina Sky Survey MPS 392550
2011 09 20.27848 22 09 03.45 -09 40 17.8 18.8 V 703 – Catalina Sky Survey MPS 392550
2011 09 20.28600 22 09 03.16 -09 40 16.4 18.5 V 703 – Catalina Sky Survey MPS 392550
2011 09 24.85273 22 07 09.36 -09 19 43.5 17.7 R 106 – Crni Vrh MPS 394170
2011 09 24.86507 22 07 09.07 -09 19 40.0 17.7 R 106 – Crni Vrh MPS 394170
2011 09 24.87743 22 07 08.79 -09 19 37.0 17.7 R 106 – Crni Vrh MPS 394170
2011 09 24.88977 22 07 08.51 -09 19 33.6 17.6 R 106 – Crni Vrh MPS 394170
2011 09 26.24814 22 06 43.81 -09 13 05.4 18.9 V G96 – Mt. Lemmon Survey MPS 394170
2011 09 26.25393 22 06 43.66 -09 13 03.7 18.9 V G96 – Mt. Lemmon Survey MPS 394170
2011 09 26.26446 22 06 43.48 -09 13 00.7 18.9 V G96 – Mt. Lemmon Survey MPS 394170
2011 09 27.17194 22 06 29.75 -09 08 36.8 18.7   704 – Lincoln Laboratory ETS, New Mexico MPS 394170
2011 09 27.18478 22 06 29.52 -09 08 33.3 19.3   704 – Lincoln Laboratory ETS, New Mexico MPS 394170
2011 09 27.19767 22 06 29.28 -09 08 30.0 18.9   704 – Lincoln Laboratory ETS, New Mexico MPS 394170
2011 09 27.21066 22 06 29.04 -09 08 26.0 18.7   704 – Lincoln Laboratory ETS, New Mexico MPS 394170
2011 09 27.22350 22 06 28.77 -09 08 22.3 19.2   704 – Lincoln Laboratory ETS, New Mexico MPS 394170
2011 10 01.15742 22 05 51.25 -08 48 33.0 19.0   704 – Lincoln Laboratory ETS, New Mexico MPS 394975
2011 10 01.17245 22 05 51.12 -08 48 28.2 19.4   704 – Lincoln Laboratory ETS, New Mexico MPS 394975
2011 10 01.18546 22 05 51.02 -08 48 24.4 19.7   704 – Lincoln Laboratory ETS, New Mexico MPS 394975
